K1JLC Plymouth MA US current weather conditions

sailwx.info

Wind from 139 at 0 knots gusting 2

Air temperature -3.9° C
Dewpoint -8.7° C

Last reported at 2019-Dec-08 02:09 UTC.
Time now 2019-Dec-08 02:49 UTC

Location: N 41°49' W 070°35'.
View on Google Maps.

See reports from other nearby stations

  
Tides and Currents Weather Stations Pressure Air Temp Water Temp Dewpoint Dewpoint Depression Visibility Wind Speed Wind Dir Waves Ship Positions
date/time (UTC)wind fromknots sea level pressurealtimeterstation pressurevisibilityair tempwater tempwave heightnotes
2019-Dec-08 02:09 139 0 gusting 2 -3.9
2019-Dec-08 02:03 141 0 gusting 2 -3.9
2019-Dec-08 02:00 142 0 gusting 2 -3.9
2019-Dec-08 01:54 140 0 gusting 2 -3.9
2019-Dec-08 01:48 136 0 gusting 2 -3.9
2019-Dec-08 01:45 134 0 gusting 0 -3.9
2019-Dec-08 01:39 -3.9
2019-Dec-08 01:33 -3.3
2019-Dec-08 01:30 -3.3
2019-Dec-08 01:24 136 0 gusting 3 -3.3
2019-Dec-08 01:18 133 0 gusting 3 -3.3
2019-Dec-08 01:15 131 0 gusting 3 -3.3
2019-Dec-08 01:09 136 0 gusting 3 -3.3
2019-Dec-08 01:03 140 0 gusting 4 -3.3
2019-Dec-08 01:00 139 0 gusting 4 -3.3
2019-Dec-08 00:54 143 0 gusting 2 -3.3
2019-Dec-08 00:48 143 0 gusting 2 -3.3
2019-Dec-08 00:45 -3.3
2019-Dec-08 00:39 -3.3
2019-Dec-08 00:33 146 0 gusting 1 -3.3
2019-Dec-08 00:30 142 0 gusting 3 -2.8
2019-Dec-08 00:24 134 1 gusting 4 -2.8
2019-Dec-08 00:18 133 1 gusting 4 -2.8
2019-Dec-08 00:15 135 0 gusting 4 -2.8
2019-Dec-08 00:09 140 0 gusting 2 -2.8
2019-Dec-08 00:03 142 0 gusting 2 -2.8
2019-Dec-08 00:00 -2.8
2019-Dec-07 23:54 138 0 gusting 2 -2.8
2019-Dec-07 23:48 136 0 gusting 2 -2.2
2019-Dec-07 23:45 137 0 gusting 2 -2.2
2019-Dec-07 23:39 133 0 gusting 2 -2.2
2019-Dec-07 23:33 134 0 gusting 1 -2.2
2019-Dec-07 23:30 135 0 gusting 1 -2.2
2019-Dec-07 23:24 132 0 gusting 3 -2.2
2019-Dec-07 23:18 137 0 gusting 3 -2.8
2019-Dec-07 23:15 139 0 gusting 2 -2.8
2019-Dec-07 23:09 -2.8
2019-Dec-07 23:03 -2.8
2019-Dec-07 23:00 -2.8
2019-Dec-07 22:54 -2.2
2019-Dec-07 22:48 -2.2
2019-Dec-07 22:45 -2.2
2019-Dec-07 22:39 -1.7
2019-Dec-07 22:33 131 0 gusting 2 -1.7
2019-Dec-07 22:30 131 0 gusting 2 -1.7
2019-Dec-07 22:24 134 1 gusting 5 -1.7
2019-Dec-07 22:18 136 1 gusting 5 -1.7
2019-Dec-07 22:15 137 1 gusting 5 -1.1
2019-Dec-07 22:09 139 1 gusting 6 -1.1
2019-Dec-07 22:03 137 1 gusting 6 -1.1
2019-Dec-07 22:00 136 1 gusting 6 -1.1
2019-Dec-07 21:54 132 0 gusting 4 -1.1
2019-Dec-07 21:48 129 0 gusting 3 -1.1
2019-Dec-07 21:45 131 0 gusting 3 -1.1
2019-Dec-07 21:39 138 0 gusting 3 -1.1
2019-Dec-07 21:33 -1.1
2019-Dec-07 21:30 -1.1
2019-Dec-07 21:24 -0.6
2019-Dec-07 21:18 -0.6
2019-Dec-07 21:15 -0.6
2019-Dec-07 21:09 -0.6
2019-Dec-07 21:03 -0.6
2019-Dec-07 21:00 129 0 gusting 3 -0.6
2019-Dec-07 20:54 137 0 gusting 4 -0.0
2019-Dec-07 20:48 135 1 gusting 6 -0.0
2019-Dec-07 20:45 138 1 gusting 6 -0.0
2019-Dec-07 20:39 141 1 gusting 6 -0.0
2019-Dec-07 20:33 140 1 gusting 6 -0.0
2019-Dec-07 20:30 143 1 gusting 6 -0.0
2019-Dec-07 20:24 144 1 gusting 10 -0.0
2019-Dec-07 20:18 140 1 gusting 10 0.6
2019-Dec-07 20:15 139 1 gusting 6 0.6
2019-Dec-07 20:09 136 1 gusting 5 0.6
2019-Dec-07 20:03 138 1 gusting 5 0.6
2019-Dec-07 20:00 136 1 gusting 5 0.6
2019-Dec-07 19:54 141 0 gusting 5 0.6
2019-Dec-07 19:48 140 1 gusting 5 0.6
2019-Dec-07 19:45 140 2 gusting 6 0.6
2019-Dec-07 19:39 140 3 gusting 7 0.6
2019-Dec-07 19:33 141 2 gusting 7 0.6
2019-Dec-07 19:30 140 2 gusting 7 0.6
2019-Dec-07 19:24 149 1 gusting 7 0.6
2019-Dec-07 19:18 149 1 gusting 5 0.6
2019-Dec-07 19:15 145 1 gusting 5 0.6
2019-Dec-07 19:09 145 1 gusting 4 0.6
2019-Dec-07 19:03 132 1 gusting 6 0.6
2019-Dec-07 19:00 127 1 gusting 6 0.6
2019-Dec-07 18:54 133 2 gusting 6 0.6
2019-Dec-07 18:48 139 1 gusting 6 0.6
2019-Dec-07 18:45 136 1 gusting 6 0.6
2019-Dec-07 18:39 135 1 gusting 5 0.6
2019-Dec-07 18:33 138 1 gusting 5 0.6
2019-Dec-07 18:30 140 1 gusting 5 0.6
2019-Dec-07 18:24 135 1 gusting 6 0.6
2019-Dec-07 18:18 131 0 gusting 6 0.6
2019-Dec-07 18:15 131 0 gusting 3 0.6
2019-Dec-07 18:09 137 1 gusting 6 0.6
2019-Dec-07 18:03 146 1 gusting 6 0.6
2019-Dec-07 18:00 149 1 gusting 6 0.6
2019-Dec-07 17:54 145 0 gusting 6 0.6
2019-Dec-07 17:48 143 0 gusting 5 -0.0
2019-Dec-07 17:45 140 1 gusting 6 -0.0
2019-Dec-07 17:39 140 2 gusting 7 -0.0
2019-Dec-07 17:33 138 0 gusting 4 0.6
2019-Dec-07 17:30 141 0 gusting 4 0.6
2019-Dec-07 17:24 153 1 gusting 4 -0.0
2019-Dec-07 17:18 157 1 gusting 6 -0.0
2019-Dec-07 17:15 152 1 gusting 6 -0.0
2019-Dec-07 17:09 140 1 gusting 6 -0.0
2019-Dec-07 17:03 177 1 gusting 5 -0.0
2019-Dec-07 17:00 186 1 gusting 6 0.6
2019-Dec-07 16:54 165 1 gusting 6 -0.0
2019-Dec-07 16:48 144 0 gusting 4 -0.0
2019-Dec-07 16:45 146 0 gusting 3 -0.0
2019-Dec-07 16:39 154 0 gusting 5 -0.0
2019-Dec-07 16:33 162 1 gusting 6 -0.0
2019-Dec-07 16:30 163 1 gusting 6 -0.0
2019-Dec-07 16:24 155 0 gusting 4 -0.0
2019-Dec-07 16:18 147 2 gusting 6 -0.6
2019-Dec-07 16:15 148 2 gusting 7 -0.6
2019-Dec-07 16:09 151 1 gusting 7 -0.6
2019-Dec-07 16:03 139 1 gusting 6 -0.6
2019-Dec-07 16:00 139 1 gusting 6 -0.6
2019-Dec-07 15:54 140 1 gusting 6 -0.6
2019-Dec-07 15:48 148 2 gusting 6 -1.1
2019-Dec-07 15:45 153 2 gusting 6 -0.6
2019-Dec-07 15:39 171 1 gusting 7 -0.6
2019-Dec-07 15:33 156 1 gusting 6 -1.1
2019-Dec-07 15:30 143 1 gusting 6 -1.1
2019-Dec-07 15:24 136 2 gusting 8 -1.1
2019-Dec-07 15:18 135 3 gusting 8 -1.1
2019-Dec-07 15:15 136 2 gusting 8 -1.1
2019-Dec-07 15:09 141 1 gusting 6 -1.1
2019-Dec-07 15:03 143 1 gusting 7 -1.1
2019-Dec-07 15:00 140 2 gusting 7 -1.1
2019-Dec-07 14:54 143 1 gusting 6 -1.7
2019-Dec-07 14:48 156 1 gusting 5 -1.7
2019-Dec-07 14:45 159 1 gusting 6 -1.7
2019-Dec-07 14:39 151 1 gusting 6 -1.7
2019-Dec-07 14:33 156 1 gusting 6 -1.7
2019-Dec-07 14:30 157 1 gusting 6 -1.7
2019-Dec-07 14:24 145 2 gusting 10 -2.2
2019-Dec-07 14:18 141 2 gusting 10 -2.2
2019-Dec-07 14:15 144 2 gusting 7 -2.2
2019-Dec-07 14:09 145 1 gusting 7 -2.2
2019-Dec-07 14:03 143 1 gusting 6 -2.2
2019-Dec-07 14:00 143 1 gusting 6 -2.2
2019-Dec-07 13:54 145 1 gusting 6 -2.2
2019-Dec-07 13:48 144 1 gusting 6 -2.2
2019-Dec-07 13:45 145 1 gusting 6 -2.8
2019-Dec-07 13:39 142 1 gusting 6 -2.8
2019-Dec-07 13:33 159 1 gusting 5 -2.8
2019-Dec-07 13:30 160 0 gusting 4 -2.8
2019-Dec-07 13:24 135 0 gusting 4 -2.8
2019-Dec-07 13:18 138 0 gusting 3 -3.3
2019-Dec-07 13:15 141 0 gusting 3 -3.3
2019-Dec-07 13:09 140 0 gusting 3 -3.3
2019-Dec-07 13:03 -3.3
2019-Dec-07 13:00 -3.3
2019-Dec-07 12:54 -3.3
2019-Dec-07 12:48 -3.3
2019-Dec-07 12:45 -3.3
2019-Dec-07 12:39 -3.3
2019-Dec-07 12:33 -3.3
2019-Dec-07 12:30 -3.3
2019-Dec-07 12:24 -3.3
2019-Dec-07 12:18 138 0 gusting 4 -3.3
2019-Dec-07 12:15 139 0 gusting 4 -3.3
2019-Dec-07 12:09 140 0 gusting 6 -3.3
2019-Dec-07 12:03 137 0 gusting 6 -3.3
2019-Dec-07 12:00 137 0 gusting 6 -3.3
2019-Dec-07 11:54 137 0 gusting 3 -3.3
2019-Dec-07 11:48 137 0 gusting 6 -3.3
2019-Dec-07 11:45 135 0 gusting 6 -3.3
2019-Dec-07 11:39 135 0 gusting 4 -3.3
2019-Dec-07 11:33 137 1 gusting 5 -3.3
2019-Dec-07 11:27 136 1 gusting 5 -2.8
2019-Dec-07 11:24 137 0 gusting 5 -2.8
2019-Dec-07 11:18 137 0 gusting 5 -2.8
2019-Dec-07 11:15 137 1 gusting 5 -2.8
2019-Dec-07 11:09 137 1 gusting 5 -2.8
2019-Dec-07 11:03 138 0 gusting 5 -2.8
2019-Dec-07 11:00 138 1 gusting 4 -2.8
2019-Dec-07 10:54 142 1 gusting 6 -2.8
2019-Dec-07 10:48 139 1 gusting 6 -2.8
2019-Dec-07 10:45 137 1 gusting 6 -2.8
2019-Dec-07 10:39 139 1 gusting 6 -2.8
2019-Dec-07 10:33 135 2 gusting 11 -2.2
2019-Dec-07 10:30 134 2 gusting 11 -2.2
2019-Dec-07 10:24 135 2 gusting 11 -2.2
2019-Dec-07 10:18 137 1 gusting 6 -2.2
2019-Dec-07 10:15 140 1 gusting 6 -2.2
2019-Dec-07 10:09 139 1 gusting 4 -2.2
2019-Dec-07 10:03 134 1 gusting 4 -2.2
2019-Dec-07 10:00 136 0 gusting 4 -2.2
2019-Dec-07 09:54 142 0 gusting 3 -2.2
2019-Dec-07 09:48 -2.2
2019-Dec-07 09:45 -2.2
2019-Dec-07 09:39 139 0 gusting 2 -2.2
2019-Dec-07 09:33 137 0 gusting 2 -2.2
2019-Dec-07 09:30 138 0 gusting 3 -2.2
2019-Dec-07 09:24 137 0 gusting 3 -2.2
2019-Dec-07 09:18 137 0 gusting 5 -2.2
2019-Dec-07 09:15 135 0 gusting 5 -2.2
2019-Dec-07 09:09 139 1 gusting 4 -1.7
2019-Dec-07 09:03 140 1 gusting 4 -1.7
2019-Dec-07 09:00 142 1 gusting 4 -1.7
2019-Dec-07 08:54 143 1 gusting 6 -1.7
2019-Dec-07 08:48 137 1 gusting 4 -1.7
2019-Dec-07 08:45 143 1 gusting 4 -1.7
2019-Dec-07 08:39 146 1 gusting 6 -1.7
2019-Dec-07 08:33 140 1 gusting 6 -1.7
2019-Dec-07 08:30 142 1 gusting 7 -1.7
2019-Dec-07 08:24 144 1 gusting 7 -1.7
2019-Dec-07 08:18 145 1 gusting 7 -1.1
2019-Dec-07 08:15 145 1 gusting 5 -1.1
2019-Dec-07 08:09 146 1 gusting 4 -1.7
2019-Dec-07 08:03 141 1 gusting 6 -1.1
2019-Dec-07 08:00 142 1 gusting 6 -1.1
2019-Dec-07 07:54 145 0 gusting 4 -1.1
2019-Dec-07 07:48 142 0 gusting 3 -1.1
2019-Dec-07 07:45 142 1 gusting 4 -1.1
2019-Dec-07 07:39 140 1 gusting 6 -1.1
2019-Dec-07 07:33 141 1 gusting 6 -1.1
2019-Dec-07 07:30 141 2 gusting 7 -1.1
2019-Dec-07 07:24 140 2 gusting 7 -1.1
2019-Dec-07 07:18 143 2 gusting 8 -1.1
2019-Dec-07 07:15 145 2 gusting 8 -1.1
2019-Dec-07 07:09 144 2 gusting 6 -1.1
2019-Dec-07 07:03 141 2 gusting 6 -1.1
2019-Dec-07 07:00 141 2 gusting 6 -1.1
2019-Dec-07 06:54 141 2 gusting 6 -1.1
2019-Dec-07 06:48 143 2 gusting 6 -1.1
2019-Dec-07 06:45 143 2 gusting 6 -1.1
2019-Dec-07 06:39 141 2 gusting 6 -1.1
2019-Dec-07 06:33 140 3 gusting 11 -1.1
2019-Dec-07 06:30 140 3 gusting 11 -1.1
2019-Dec-07 06:24 140 3 gusting 11 -0.6
2019-Dec-07 06:18 139 2 gusting 7 -0.6
2019-Dec-07 06:15 136 2 gusting 12 -0.6
2019-Dec-07 06:09 139 3 gusting 13 -0.6
2019-Dec-07 06:03 140 3 gusting 13 -0.6
2019-Dec-07 06:00 139 3 gusting 10 -0.6
2019-Dec-07 05:54 139 3 gusting 9 -0.6
2019-Dec-07 05:48 143 2 gusting 6 -0.6
2019-Dec-07 05:45 142 2 gusting 6 -0.6
2019-Dec-07 05:39 142 1 gusting 6 -0.6
2019-Dec-07 05:33 139 1 gusting 5 -0.0
2019-Dec-07 05:30 139 0 gusting 5 -0.0
2019-Dec-07 05:24 132 0 gusting 4 -0.0
2019-Dec-07 05:18 137 0 gusting 4 -0.0
2019-Dec-07 05:15 137 1 gusting 6 -0.0
2019-Dec-07 05:09 138 2 gusting 6 0.6
2019-Dec-07 05:03 138 3 gusting 9 0.6
2019-Dec-07 05:00 140 3 gusting 9 0.6
2019-Dec-07 04:54 144 5 gusting 14 0.6
2019-Dec-07 04:48 141 5 gusting 14 1.1
2019-Dec-07 04:45 141 3 gusting 13 1.1
2019-Dec-07 04:39 141 4 gusting 13 1.1
2019-Dec-07 04:33 136 4 gusting 13 1.1
2019-Dec-07 04:30 137 2 gusting 6 1.1
2019-Dec-07 04:24 132 1 gusting 9 1.7
2019-Dec-07 04:18 138 3 gusting 9 1.7
2019-Dec-07 04:15 142 3 gusting 8 1.7
2019-Dec-07 04:09 143 5 gusting 11 2.2
2019-Dec-07 04:03 140 4 gusting 11 2.2
2019-Dec-07 04:00 137 4 gusting 10 2.2
2019-Dec-07 03:54 139 4 gusting 11 2.2
2019-Dec-07 03:48 136 3 gusting 11 2.8
2019-Dec-07 03:45 136 4 gusting 11 2.8
2019-Dec-07 03:39 138 4 gusting 12 3.3
2019-Dec-07 03:33 140 4 gusting 10 3.3
2019-Dec-07 03:30 139 4 gusting 10 3.3
2019-Dec-07 03:24 137 4 gusting 10 3.3
2019-Dec-07 03:18 138 3 gusting 9 3.9
2019-Dec-07 03:15 137 3 gusting 8 3.9
2019-Dec-07 03:09 137 2 gusting 7 3.9
2019-Dec-07 03:03 135 2 gusting 9 3.9
2019-Dec-07 03:00 136 2 gusting 9 3.9
2019-Dec-07 02:54 135 3 gusting 6 4.4
2019-Dec-07 02:48 134 3 gusting 9 4.4
2019-Dec-07 02:45 135 3 gusting 9 4.4
2019-Dec-07 02:39 134 3 gusting 10 5.0
2019-Dec-07 02:33 132 2 gusting 6 5.0
2019-Dec-07 02:30 132 2 gusting 6 5.0
2019-Dec-07 02:24 134 2 gusting 6 5.6
2019-Dec-07 02:18 133 2 gusting 6 5.6
2019-Dec-07 02:15 133 2 gusting 5 5.6
2019-Dec-07 02:09 133 2 gusting 6 6.1
2019-Dec-07 02:03 130 3 gusting 8 6.1
2019-Dec-07 02:00 128 3 gusting 8 6.7
2019-Dec-07 01:54 132 3 gusting 7 6.7
2019-Dec-07 01:48 130 3 gusting 10 6.7
2019-Dec-07 01:45 129 3 gusting 10 6.7
2019-Dec-07 01:39 131 2 gusting 6 7.2
2019-Dec-07 01:33 131 2 gusting 5 7.2
2019-Dec-07 01:30 129 1 gusting 5 7.2
2019-Dec-07 01:24 130 2 gusting 6 7.2
2019-Dec-07 01:18 132 2 gusting 7 7.2
2019-Dec-07 01:15 131 2 gusting 7 7.2
2019-Dec-07 01:09 129 2 gusting 5 7.2
2019-Dec-07 01:03 132 2 gusting 6 7.2
2019-Dec-07 01:00 132 2 gusting 6 7.2
2019-Dec-07 00:54 129 1 gusting 4 7.2
2019-Dec-07 00:48 129 1 gusting 3 7.2
2019-Dec-07 00:45 129 1 gusting 3 7.2
2019-Dec-07 00:39 131 0 gusting 3 7.2
2019-Dec-07 00:33 129 0 gusting 4 7.2
2019-Dec-07 00:30 130 0 gusting 5 7.2
2019-Dec-07 00:24 131 1 gusting 5 7.2
2019-Dec-07 00:18 128 0 gusting 5 7.2
2019-Dec-07 00:15 124 0 gusting 6 7.2
2019-Dec-07 00:09 134 0 gusting 6 7.2
2019-Dec-07 00:03 148 0 gusting 6 6.7
2019-Dec-07 00:00 131 0 gusting 4 6.7
2019-Dec-06 23:54 119 0 gusting 2 6.7
2019-Dec-06 23:48 130 0 gusting 5 6.7
2019-Dec-06 23:45 131 0 gusting 5 7.2
2019-Dec-06 23:39 128 0 gusting 5 6.7
2019-Dec-06 23:33 131 0 gusting 3 6.7
2019-Dec-06 23:30 136 0 gusting 4 6.7
2019-Dec-06 23:24 131 1 gusting 6 6.7
2019-Dec-06 23:18 127 0 gusting 6 6.7
2019-Dec-06 23:15 133 0 gusting 3 6.7
2019-Dec-06 23:09 143 0 gusting 4 6.7
2019-Dec-06 23:03 147 0 gusting 4 6.7
2019-Dec-06 23:00 142 0 gusting 4 6.7
2019-Dec-06 22:54 133 0 gusting 4 6.7
2019-Dec-06 22:48 125 0 gusting 3 6.1
2019-Dec-06 22:45 128 0 gusting 3 6.1
2019-Dec-06 22:39 106 0 gusting 4 6.1
2019-Dec-06 22:33 083 0 gusting 4 6.1
2019-Dec-06 22:30 6.1
2019-Dec-06 22:24 079 0 gusting 2 6.1
2019-Dec-06 22:18 089 0 gusting 2 6.1
2019-Dec-06 22:15 092 0 gusting 4 6.1
2019-Dec-06 22:09 073 0 gusting 4 5.6
2019-Dec-06 22:03 084 0 gusting 2 5.6
2019-Dec-06 22:00 085 0 gusting 2 5.6
2019-Dec-06 21:54 072 0 gusting 1 5.0
2019-Dec-06 21:48 066 0 gusting 1 5.0
2019-Dec-06 21:45 066 0 gusting 1 5.0
2019-Dec-06 21:39 075 0 gusting 1 4.4
2019-Dec-06 21:33 3.9
2019-Dec-06 21:30 3.9
2019-Dec-06 21:24 3.9
2019-Dec-06 21:18 3.9
2019-Dec-06 21:15 3.9
2019-Dec-06 21:09 3.9
2019-Dec-06 21:03 3.9
2019-Dec-06 21:00 3.9
2019-Dec-06 20:54 3.9
2019-Dec-06 20:48 3.9
2019-Dec-06 20:45 3.9
2019-Dec-06 20:39 3.3
2019-Dec-06 19:48 3.3
2019-Dec-06 19:45 3.3
2019-Dec-06 19:39 3.3
2019-Dec-06 19:33 3.3
2019-Dec-06 19:30 3.3
2019-Dec-06 19:24 3.3
2019-Dec-06 19:18 2.8
2019-Dec-06 19:15 2.8
2019-Dec-06 19:09 2.8
2019-Dec-06 19:03 2.8
2019-Dec-06 19:00 2.8
2019-Dec-06 18:54 2.8
2019-Dec-06 18:48 130 0 gusting 4 2.2
2019-Dec-06 18:45 131 0 gusting 4 2.2
2019-Dec-06 18:39 144 0 gusting 4 2.2
2019-Dec-06 18:33 2.2
2019-Dec-06 18:30 2.2
2019-Dec-06 18:24 2.2
2019-Dec-06 18:18 128 0 gusting 5 2.2
2019-Dec-06 18:15 128 0 gusting 5 2.2
2019-Dec-06 18:09 129 0 gusting 5 2.2
2019-Dec-06 18:03 136 0 gusting 3 2.2
2019-Dec-06 18:00 2.2
2019-Dec-06 17:54 2.2
2019-Dec-06 17:48 135 0 gusting 3 2.2
2019-Dec-06 17:45 138 0 gusting 3 2.2
2019-Dec-06 17:39 145 0 gusting 3 2.2
2019-Dec-06 17:33 142 0 gusting 3 2.2
2019-Dec-06 17:30 142 0 gusting 3 2.2
2019-Dec-06 17:24 1.7
2019-Dec-06 17:18 133 0 gusting 4 1.7
2019-Dec-06 17:15 135 0 gusting 4 1.7
2019-Dec-06 17:09 140 0 gusting 3 1.7
2019-Dec-06 17:03 145 0 gusting 3 1.7
2019-Dec-06 17:00 155 0 gusting 3 1.7
2019-Dec-06 16:54 137 0 gusting 2 1.7
2019-Dec-06 16:48 121 0 gusting 2 1.7
2019-Dec-06 16:45 124 0 gusting 2 1.7
2019-Dec-06 16:39 129 0 gusting 4 1.7
2019-Dec-06 16:33 132 0 gusting 4 1.7
2019-Dec-06 16:30 132 0 gusting 4 1.7
2019-Dec-06 16:24 1.7
2019-Dec-06 16:18 1.7
2019-Dec-06 16:15 113 0 gusting 2 1.7
2019-Dec-06 16:09 104 0 gusting 2 1.7
2019-Dec-06 16:03 1.7
2019-Dec-06 16:00 1.7
2019-Dec-06 15:54 1.7
2019-Dec-06 15:48 113 0 gusting 3 1.7
2019-Dec-06 15:45 122 0 gusting 3 1.7
2019-Dec-06 15:39 125 0 gusting 6 1.7
2019-Dec-06 15:33 102 0 gusting 6 1.1
2019-Dec-06 15:30 114 0 gusting 6 1.1
2019-Dec-06 15:24 129 0 gusting 5 1.1
2019-Dec-06 15:18 125 0 gusting 4 1.1
2019-Dec-06 15:15 128 0 gusting 4 1.1
2019-Dec-06 15:09 131 0 gusting 3 1.1
2019-Dec-06 15:03 135 0 gusting 4 1.1
2019-Dec-06 15:00 133 0 gusting 4 1.1
2019-Dec-06 14:54 136 0 gusting 4 1.1
2019-Dec-06 14:48 138 0 gusting 4 1.1
2019-Dec-06 14:45 136 0 gusting 2 1.1
2019-Dec-06 14:39 132 0 gusting 3 0.6
2019-Dec-06 14:33 135 0 gusting 4 0.6
2019-Dec-06 14:30 143 0 gusting 4 0.6
2019-Dec-06 14:24 135 0 gusting 2 0.6
2019-Dec-06 14:18 130 0 gusting 2 -0.0
2019-Dec-06 14:15 127 0 gusting 2 -0.0
2019-Dec-06 14:09 -0.0
2019-Dec-06 14:03 142 0 gusting 4 -0.0
2019-Dec-06 14:00 140 0 gusting 4 -0.0
2019-Dec-06 13:54 123 0 gusting 2 -0.0
2019-Dec-06 13:48 126 0 gusting 5 -0.6
2019-Dec-06 13:45 128 0 gusting 5 -0.6
2019-Dec-06 13:39 129 0 gusting 3 -0.6
2019-Dec-06 13:33 133 1 gusting 3 -0.6
2019-Dec-06 13:30 135 0 gusting 3 -1.1
2019-Dec-06 13:24 131 0 gusting 3 -1.1
2019-Dec-06 13:18 128 0 gusting 3 -1.1
2019-Dec-06 13:15 129 0 gusting 3 -1.1
2019-Dec-06 13:09 133 0 gusting 3 -1.7
2019-Dec-06 13:03 133 0 gusting 3 -1.7
2019-Dec-06 13:00 130 0 gusting 2 -1.7
2019-Dec-06 12:54 136 0 gusting 3 -1.7
2019-Dec-06 12:48 -1.7
2019-Dec-06 12:45 131 0 gusting 3 -1.7
2019-Dec-06 12:39 132 0 gusting 3 -1.7
2019-Dec-06 12:33 -2.2
2019-Dec-06 12:30 -2.2
2019-Dec-06 12:24 -2.2
2019-Dec-06 12:18 125 0 gusting 1 -2.2
2019-Dec-06 12:15 123 0 gusting 1 -2.2
2019-Dec-06 12:09 127 0 gusting 2 -2.2
2019-Dec-06 12:03 132 0 gusting 1 -2.2
2019-Dec-06 12:00 131 0 gusting 1 -2.2
2019-Dec-06 11:54 130 0 gusting 1 -2.2
2019-Dec-06 11:48 131 0 gusting 1 -2.2
2019-Dec-06 11:42 134 0 gusting 2 -2.2
2019-Dec-06 11:39 135 0 gusting 2 -2.2
2019-Dec-06 11:33 134 0 gusting 1 -2.2
2019-Dec-06 11:30 129 0 gusting 1 -2.2
2019-Dec-06 11:24 127 0 gusting 1 -2.2
2019-Dec-06 11:18 127 0 gusting 2 -2.2
2019-Dec-06 11:15 127 0 gusting 2 -2.2
2019-Dec-06 11:09 131 0 gusting 2 -2.2
2019-Dec-06 11:03 132 0 gusting 1 -2.2
2019-Dec-06 11:00 132 0 gusting 2 -2.2
2019-Dec-06 10:54 129 0 gusting 3 -2.2
2019-Dec-06 10:48 127 0 gusting 3 -2.2
2019-Dec-06 10:45 124 0 gusting 3 -2.2
2019-Dec-06 10:39 129 0 gusting 4 -2.2
2019-Dec-06 10:33 129 1 gusting 4 -2.2
2019-Dec-06 10:30 129 1 gusting 4 -2.2
2019-Dec-06 10:24 127 1 gusting 2 -2.2
2019-Dec-06 10:18 130 1 gusting 2 -2.2
2019-Dec-06 10:15 131 1 gusting 3 -2.2
2019-Dec-06 10:09 130 1 gusting 3 -2.2
2019-Dec-06 10:03 129 1 gusting 6 -2.2
2019-Dec-06 10:00 131 2 gusting 7 -2.2
2019-Dec-06 09:54 131 2 gusting 7 -2.2
2019-Dec-06 09:48 130 1 gusting 5 -2.2
2019-Dec-06 09:45 130 1 gusting 3 -2.2
2019-Dec-06 09:39 132 1 gusting 3 -2.2
2019-Dec-06 09:33 129 1 gusting 4 -2.2
2019-Dec-06 09:30 129 1 gusting 5 -2.2
2019-Dec-06 09:24 127 0 gusting 5 -2.2
2019-Dec-06 09:18 125 0 gusting 2 -2.2
2019-Dec-06 09:15 128 0 gusting 4 -2.2
2019-Dec-06 09:09 130 1 gusting 4 -2.2
2019-Dec-06 09:03 129 0 gusting 2 -2.8
2019-Dec-06 09:00 127 0 gusting 2 -2.8
2019-Dec-06 08:54 126 0 gusting 3 -2.8
2019-Dec-06 08:48 131 0 gusting 3 -2.8
2019-Dec-06 08:45 -2.8
2019-Dec-06 08:39 -2.8
2019-Dec-06 08:33 139 0 gusting 0 -2.8
2019-Dec-06 08:30 140 0 gusting 1 -2.8
2019-Dec-06 08:24 132 0 gusting 1 -2.8
2019-Dec-06 08:18 132 0 gusting 1 -2.2
2019-Dec-06 08:15 135 0 gusting 1 -2.2
2019-Dec-06 08:09 137 0 gusting 1 -2.2
2019-Dec-06 08:03 135 0 gusting 1 -2.2
2019-Dec-06 08:00 130 0 gusting 1 -2.2
2019-Dec-06 07:54 118 0 gusting 1 -2.2
2019-Dec-06 07:48 118 0 gusting 2 -2.2
2019-Dec-06 07:45 123 0 gusting 2 -2.2
2019-Dec-06 07:39 135 0 gusting 2 -2.2
2019-Dec-06 07:33 -2.2
2019-Dec-06 07:30 -2.2
2019-Dec-06 07:24 -2.2
2019-Dec-06 07:18 -2.2
2019-Dec-06 07:15 -2.2
2019-Dec-06 07:09 -2.2
2019-Dec-06 07:03 139 0 gusting 2 -2.2
2019-Dec-06 07:00 143 0 gusting 1 -2.2
2019-Dec-06 06:54 139 0 gusting 2 -1.7
2019-Dec-06 06:48 133 1 gusting 4 -1.7
2019-Dec-06 06:45 131 0 gusting 4 -1.7
2019-Dec-06 06:39 132 0 gusting 3 -1.7
2019-Dec-06 06:33 133 0 gusting 3 -1.7
2019-Dec-06 06:30 135 0 gusting 3 -1.7
2019-Dec-06 06:24 136 1 gusting 4 -1.7
2019-Dec-06 06:18 134 1 gusting 4 -1.7
2019-Dec-06 06:15 131 0 gusting 4 -1.7
2019-Dec-06 06:09 133 0 gusting 4 -1.7
2019-Dec-06 06:03 137 0 gusting 3 -1.7
2019-Dec-06 06:00 135 0 gusting 3 -1.7
2019-Dec-06 05:54 129 0 gusting 2 -1.7
2019-Dec-06 05:48 133 0 gusting 2 -1.7
2019-Dec-06 05:45 135 0 gusting 1 -1.1
2019-Dec-06 05:39 130 0 gusting 2 -1.1
2019-Dec-06 05:33 132 1 gusting 3 -1.1
2019-Dec-06 05:30 132 1 gusting 3 -1.1
2019-Dec-06 05:24 132 1 gusting 4 -1.1
2019-Dec-06 05:18 131 0 gusting 4 -1.1
2019-Dec-06 05:15 129 0 gusting 3 -1.1
2019-Dec-06 05:09 128 0 gusting 3 -1.1
2019-Dec-06 05:03 127 0 gusting 1 -1.1
2019-Dec-06 05:00 128 0 gusting 2 -1.1
2019-Dec-06 04:54 128 1 gusting 5 -1.1
2019-Dec-06 04:48 129 1 gusting 5 -1.1
2019-Dec-06 04:45 133 1 gusting 4 -1.1
2019-Dec-06 04:39 133 1 gusting 3 -1.1
2019-Dec-06 04:33 133 1 gusting 7 -1.1
2019-Dec-06 04:30 133 1 gusting 7 -1.1
2019-Dec-06 04:24 131 1 gusting 6 -1.1
2019-Dec-06 04:18 125 1 gusting 6 -1.1
2019-Dec-06 04:15 127 0 gusting 5 -1.1
2019-Dec-06 04:09 132 0 gusting 4 -0.6
2019-Dec-06 04:03 131 1 gusting 4 -0.6
2019-Dec-06 04:00 134 1 gusting 4 -0.6
2019-Dec-06 03:54 132 1 gusting 6 -0.6
2019-Dec-06 03:48 128 1 gusting 6 -0.6
2019-Dec-06 03:45 128 1 gusting 6 -0.6
2019-Dec-06 03:39 131 1 gusting 5 -0.6
2019-Dec-06 03:33 132 1 gusting 5 -0.6
2019-Dec-06 03:30 131 1 gusting 5 -0.6
2019-Dec-06 03:24 130 1 gusting 6 -0.0
2019-Dec-06 03:18 130 1 gusting 6 -0.0
2019-Dec-06 03:15 129 1 gusting 6 -0.0
2019-Dec-06 03:09 131 2 gusting 7 -0.0
2019-Dec-06 03:03 133 2 gusting 7 -0.0
2019-Dec-06 03:00 132 2 gusting 7 -0.0
2019-Dec-06 02:54 131 1 gusting 6 -0.0
2019-Dec-06 02:48 134 1 gusting 4 -0.0
2019-Dec-06 02:45 134 1 gusting 9 -0.0
2019-Dec-06 02:39 131 2 gusting 9 -0.0
2019-Dec-06 02:33 128 1 gusting 4 -0.0
2019-Dec-06 02:30 127 2 gusting 5 -0.0
2019-Dec-06 02:24 130 1 gusting 5 -0.0
2019-Dec-06 02:18 127 2 gusting 13 0.6
2019-Dec-06 02:15 128 2 gusting 13 0.6
2019-Dec-06 02:09 128 2 gusting 9 0.6
2019-Dec-06 02:03 131 3 gusting 9 0.6
2019-Dec-06 02:00 135 2 gusting 7 0.6